Tracking 29892 objects as of 21-Nov-2024
HD Live streaming from Space Station
objects crossing your sky now

STARLINK-11344

Track STARLINK-11344 now!
10-day predictions
STARLINK-11344 is classified as:


NORAD ID: 61688
Int'l Code: 2024-195B
Perigee: 346.3 km
Apogee: 347.3 km
Inclination: 53.2 °
Period: 91.3 minutes
Semi major axis: 6717 km
RCS: Unknown
Launch date: October 30, 2024
Source: United States (US)
Launch site: AIR FORCE WESTERN TEST RANGE (AFWTR)
Your satellite tracking list
Your tracking list is empty




NASA's NSSDC Master Catalog

Two Line Element Set (TLE):
1 61688U 24195B   24325.91268944  .00005761  00000-0  39160-4 0  9991
2 61688  53.1560 203.1414 0000738  78.3292 281.7812 15.76733445  4609
Source of the keplerian elements: AFSPC